Location: Kaiser
(34.0939°N, 117.4889°W)
Time: 21:03:32
(UTC+00:00)

Cosmos 1980 Rocket - Pass Details

Date: 29 October 2020
Orbit: 831 x 848 km, 71.0° (Epoch: 25 November)

Event Time Altitude Azimuth Distance (km) Brightness Sun altitude
Rises 12:51:48 0° 338° (NNW) 3,378 5.1 -16.2°
Reaches altitude 10° 12:54:14 10° 337° (NNW) 2,442 4.3 -15.7°
Maximum altitude 12:59:50 82° 251° (WSW) 845 2.1 -14.5°
Drops below altitude 10° 13:05:25 10° 164° (SSE) 2,435 4.9 -13.4°
Sets 13:07:51 0° 163° (SSE) 3,368 5.7 -12.9°
